Location: Bittkow
(50.3000°N, 19.0000°E)
Time: 12:44:47
(UTC+00:00)

Timation 1 Rocket - Pass Details

Date: 19 September 2020
Orbit: 897 x 910 km, 70.0° (Epoch: 22 October)

Event Time Altitude Azimuth Distance (km) Brightness Sun altitude
Rises 01:36:08 0° 329° (NNW) 3,540 7.5 -25.9°
Reaches altitude 10° 01:38:39 10° 331° (NNW) 2,597 6.8 -25.6°
Maximum altitude 01:44:40 75° 57° (ENE) 943 4.5 -24.8°
Drops below altitude 10° 01:50:40 10° 143° (SE) 2,589 6.7 -24.0°
Sets 01:53:10 0° 145° (SE) 3,528 7.4 -23.7°
